This demonstration page uses our WeatherBlox Daily Observations layout. Learn more.

Left ArrowRight Arrow

Hourly Observations for July 2, 2016

Temp ( °F °C ) Dew Point ( °F °C ) Humidity (%) Winds ( mph kmh ) Pressure ( in mb ) Visibility ( mi km ) Precip ( " mm )
12:15 am 00:15 Clear 72 22 64 18 78 78 W 3 6 29.97 1015 10 16 N/A
12:35 am 00:35 Clear 70 21 64 18 83 83 WNW 7 11 29.97 1015 10 16 N/A
12:55 am 00:55 Partly Cloudy 72 22 64 18 78 78 WNW 8 13 30.00 1016 10 16 N/A
1:15 am 01:15 Partly Cloudy 73 23 64 18 74 74 NW 12 19 30.00 1016 10 16 N/A
1:35 am 01:35 Clear 73 23 64 18 74 74 NW 9 15 30.00 1016 10 16 N/A
1:55 am 01:55 Clear 73 23 64 18 74 74 NE 5 7 30.00 1016 10 16 N/A
2:15 am 02:15 Clear 73 23 63 17 69 69 N 6 9 30.00 1016 10 16 N/A
2:35 am 02:35 Clear 70 21 64 18 83 83 N N/A 30.00 1016 10 16 N/A
2:55 am 02:55 Clear 70 21 64 18 83 83 NW 6 9 30.00 1016 10 16 N/A
3:15 am 03:15 Partly Cloudy 72 22 63 17 73 73 NNW 6 9 30.00 1016 10 16 N/A
3:35 am 03:35 Cloudy 70 21 64 18 83 83 NW 5 7 30.00 1016 10 16 N/A
3:55 am 03:55 Cloudy 72 22 63 17 73 73 NNW 9 15 30.00 1016 10 16 N/A
4:15 am 04:15 Cloudy 72 22 63 17 73 73 NNW 15 24 30.00 1016 10 16 N/A
4:35 am 04:35 Mostly Cloudy 72 22 61 16 69 69 NNW 13 20 30.00 1016 10 16 N/A
4:55 am 04:55 Partly Cloudy 70 21 61 16 73 73 NNW 12 19 30.03 1017 10 16 N/A
5:15 am 05:15 Clear 70 21 61 16 73 73 NNW 10 17 30.03 1017 10 16 N/A
5:35 am 05:35 Clear 68 20 61 16 78 78 NNW 9 15 30.03 1017 10 16 N/A
5:55 am 05:55 Sunny 68 20 61 16 78 78 NNW 10 17 30.06 1018 10 16 N/A
6:15 am 06:15 Sunny 68 20 61 16 78 78 NNW 7 11 30.06 1018 10 16 N/A
6:35 am 06:35 Sunny 66 19 61 16 83 83 NW 7 11 30.06 1018 10 16 N/A
6:55 am 06:55 Sunny 68 20 61 16 78 78 NNW 7 11 30.09 1019 10 16 N/A
7:15 am 07:15 Sunny 68 20 59 15 73 73 NNW 9 15 30.09 1019 10 16 N/A
7:35 am 07:35 Sunny 68 20 59 15 73 73 NNW 10 17 30.09 1019 10 16 N/A
7:55 am 07:55 Sunny 70 21 59 15 69 69 NNW 7 11 30.09 1019 10 16 N/A
8:15 am 08:15 Sunny 70 21 59 15 69 69 NW 9 15 30.12 1020 10 16 N/A
8:35 am 08:35 Sunny 70 21 59 15 69 69 NNW 8 13 30.12 1020 10 16 N/A
8:55 am 08:55 Sunny 72 22 59 15 65 65 NNW 8 13 30.12 1020 10 16 N/A
9:15 am 09:15 Sunny 72 22 57 14 61 61 WNW 14 22 30.12 1020 10 16 N/A
9:35 am 09:35 Sunny 72 22 54 12 53 53 NW 15 24 30.12 1020 10 16 N/A
9:55 am 09:55 Sunny 72 22 54 12 53 53 NNW 14 22 30.12 1020 10 16 N/A
10:15 am 10:15 Sunny 73 23 52 11 47 47 NNW 15 24 30.12 1020 10 16 N/A
10:35 am 10:35 Sunny 73 23 54 12 50 50 N 12 19 30.12 1020 10 16 N/A
10:55 am 10:55 Sunny 73 23 54 12 50 50 N 13 20 30.12 1020 10 16 N/A
11:15 am 11:15 Sunny 73 23 55 13 53 53 NNW 15 24 30.12 1020 10 16 N/A
11:35 am 11:35 Sunny 75 24 54 12 47 47 NNW 15 24 30.12 1020 10 16 N/A
11:55 am 11:55 Sunny 75 24 54 12 47 47 NNW 9 15 30.12 1020 10 16 N/A
12:15 pm 12:15 Sunny 75 24 54 12 47 47 N 10 17 30.12 1020 10 16 N/A
12:35 pm 12:35 Sunny 77 25 54 12 44 44 NNW 10 17 30.12 1020 10 16 N/A
12:55 pm 12:55 Sunny 77 25 54 12 44 44 NW 14 22 30.12 1020 10 16 N/A
1:15 pm 13:15 Sunny 77 25 52 11 42 42 NW 9 15 30.12 1020 10 16 N/A
1:35 pm 13:35 Sunny 77 25 54 12 44 44 N 10 17 30.12 1020 10 16 N/A
1:55 pm 13:55 Sunny 77 25 55 13 47 47 NW 8 13 30.12 1020 10 16 N/A
2:15 pm 14:15 Sunny 79 26 55 13 45 45 NNW 9 15 30.09 1019 10 16 N/A
2:35 pm 14:35 Sunny 79 26 55 13 45 45 NNW 13 20 30.09 1019 10 16 N/A
2:55 pm 14:55 Sunny 79 26 55 13 45 45 WNW 10 17 30.09 1019 10 16 N/A
3:15 pm 15:15 Sunny 79 26 52 11 39 39 WNW 9 15 30.12 1020 10 16 N/A
3:35 pm 15:35 Sunny 79 26 52 11 39 39 N 12 19 30.09 1019 10 16 N/A
3:55 pm 15:55 Sunny 79 26 54 12 42 42 N 7 11 30.09 1019 10 16 N/A
4:15 pm 16:15 Sunny 79 26 54 12 42 42 NW 9 15 30.09 1019 10 16 N/A
4:35 pm 16:35 Sunny 79 26 55 13 45 45 NW 9 15 30.09 1019 10 16 N/A
4:55 pm 16:55 Sunny 79 26 54 12 42 42 N 6 9 30.09 1019 10 16 N/A
5:15 pm 17:15 Sunny 79 26 54 12 42 42 NNW 10 17 30.09 1019 10 16 N/A
5:35 pm 17:35 Sunny 79 26 54 12 42 42 N 10 17 30.09 1019 10 16 N/A
5:55 pm 17:55 Sunny 77 25 54 12 44 44 N 9 15 30.09 1019 10 16 N/A
6:15 pm 18:15 Sunny 77 25 54 12 44 44 N 8 13 30.09 1019 10 16 N/A
6:35 pm 18:35 Sunny 77 25 54 12 44 44 NNE 7 11 30.09 1019 10 16 N/A
6:55 pm 18:55 Sunny 77 25 54 12 44 44 NNE 7 11 30.09 1019 10 16 N/A
7:15 pm 19:15 Sunny 75 24 55 13 50 50 NE 3 6 30.09 1019 10 16 N/A
7:35 pm 19:35 Sunny 75 24 55 13 50 50 NNE 3 6 30.09 1019 10 16 N/A
7:55 pm 19:55 Sunny 75 24 55 13 50 50 NNE 5 7 30.12 1020 10 16 N/A
8:15 pm 20:15 Sunny 75 24 55 13 50 50 SSW 7 11 30.12 1020 10 16 N/A
8:35 pm 20:35 Sunny 73 23 55 13 53 53 S 5 7 30.12 1020 10 16 N/A
8:55 pm 20:55 Clear 73 23 57 14 57 57 E 3 6 30.12 1020 10 16 N/A
9:15 pm 21:15 Clear 72 22 57 14 61 61 N N/A 30.12 1020 10 16 N/A
9:35 pm 21:35 Clear 70 21 61 16 73 73 N N/A 30.15 1021 10 16 N/A
9:55 pm 21:55 Clear 70 21 61 16 73 73 N N/A 30.15 1021 10 16 N/A
10:15 pm 22:15 Clear 70 21 61 16 73 73 N N/A 30.15 1021 10 16 N/A
10:35 pm 22:35 Clear 70 21 61 16 73 73 N 3 6 30.15 1021 10 16 N/A
10:55 pm 22:55 Clear 70 21 61 16 73 73 N 3 6 30.15 1021 10 16 N/A
11:15 pm 23:15 Clear 70 21 61 16 73 73 NNW 3 6 30.15 1021 10 16 N/A
11:35 pm 23:35 Clear 68 20 63 17 83 83 N N/A 30.15 1021 10 16 N/A
11:55 pm 23:55 Clear 68 20 61 16 78 78 N 3 6 30.15 1021 10 16 N/A

Powered by AerisWeather